TimeEDT,TemperatureF,Dew PointF,Humidity,Sea Level PressureIn,VisibilityMPH,Wind Direction,Wind SpeedMPH,Gust SpeedMPH,PrecipitationIn,Events,Conditions,WindDirDegrees,DateUTC
12:53 AM,69.1,66.0,90,30.10,10.0,South,4.6,-,N/A,,Clear,190,2013-07-06 04:53:00
1:53 AM,69.1,66.9,93,30.11,10.0,South,4.6,-,N/A,,Clear,170,2013-07-06 05:53:00
2:53 AM,69.1,66.9,93,30.11,10.0,South,3.5,-,N/A,,Clear,190,2013-07-06 06:53:00
3:53 AM,70.0,66.9,90,30.10,10.0,Calm,Calm,-,N/A,,Clear,0,2013-07-06 07:53:00
4:53 AM,69.1,66.9,93,30.09,10.0,SE,4.6,-,N/A,,Clear,130,2013-07-06 08:53:00
5:53 AM,69.1,66.9,93,30.10,10.0,Calm,Calm,-,N/A,,Clear,0,2013-07-06 09:53:00
6:53 AM,69.1,68.0,96,30.10,9.0,SSE,5.8,-,N/A,,Clear,160,2013-07-06 10:53:00
7:11 AM,69.8,68.0,94,30.13,8.0,SSE,5.8,-,N/A,,Mostly Cloudy,160,2013-07-06 11:11:00
7:19 AM,69.8,68.0,94,30.13,7.0,South,5.8,-,N/A,,Mostly Cloudy,170,2013-07-06 11:19:00
7:35 AM,69.8,68.0,94,30.13,6.0,South,5.8,-,N/A,,Overcast,170,2013-07-06 11:35:00
7:53 AM,71.1,69.1,93,30.11,5.0,South,5.8,-,N/A,,Overcast,180,2013-07-06 11:53:00
8:25 AM,71.6,69.8,94,30.14,5.0,SSE,4.6,-,0.00,Rain,Light Rain,160,2013-07-06 12:25:00
8:53 AM,72.0,70.0,93,30.12,6.0,South,6.9,-,0.00,Rain,Light Rain,170,2013-07-06 12:53:00
9:13 AM,73.4,69.8,88,30.14,7.0,South,4.6,-,0.00,Rain,Light Rain,180,2013-07-06 13:13:00
9:53 AM,73.0,70.0,90,30.11,9.0,South,5.8,-,0.00,Rain,Light Rain,170,2013-07-06 13:53:00
10:19 AM,73.4,69.8,88,30.12,10.0,South,6.9,-,0.00,,Overcast,180,2013-07-06 14:19:00
10:53 AM,77.0,70.0,79,30.10,10.0,South,5.8,-,0.00,,Mostly Cloudy,170,2013-07-06 14:53:00
11:53 AM,78.1,69.1,74,30.09,10.0,South,5.8,-,N/A,,Overcast,180,2013-07-06 15:53:00
12:53 PM,79.0,68.0,69,30.07,10.0,SSE,9.2,-,N/A,,Overcast,160,2013-07-06 16:53:00
1:53 PM,79.0,69.1,72,30.05,10.0,South,6.9,-,N/A,,Overcast,180,2013-07-06 17:53:00
2:53 PM,79.0,70.0,74,30.03,10.0,SE,5.8,-,0.03,,Mostly Cloudy,130,2013-07-06 18:53:00
3:53 PM,78.1,71.1,79,30.01,5.0,SE,10.4,-,0.03,Rain,Rain,140,2013-07-06 19:53:00
4:02 PM,75.2,71.6,89,30.04,1.8,SSE,17.3,21.9,0.06,Rain,Heavy Rain,160,2013-07-06 20:02:00
4:14 PM,75.2,71.6,89,30.03,4.0,South,8.1,-,0.10,Rain,Light Rain,180,2013-07-06 20:14:00
4:53 PM,79.0,72.0,79,30.00,10.0,SSE,9.2,-,0.11,,Scattered Clouds,160,2013-07-06 20:53:00
5:24 PM,78.8,71.6,78,30.02,10.0,SSW,6.9,-,N/A,,Overcast,200,2013-07-06 21:24:00
5:39 PM,80.6,69.8,70,30.01,10.0,SSW,5.8,-,N/A,,Mostly Cloudy,210,2013-07-06 21:39:00
5:53 PM,79.0,70.0,74,29.99,10.0,West,11.5,16.1,N/A,,Mostly Cloudy,260,2013-07-06 21:53:00
6:04 PM,75.2,69.8,83,30.01,3.0,West,12.7,-,0.04,Rain,Light Rain,260,2013-07-06 22:04:00
6:07 PM,73.4,69.8,88,30.01,2.0,West,10.4,-,0.05,Rain,Heavy Rain,270,2013-07-06 22:07:00
6:15 PM,73.4,71.6,94,30.01,6.0,West,6.9,-,0.05,Rain,Light Rain,260,2013-07-06 22:15:00
6:27 PM,75.2,71.6,89,30.01,10.0,West,4.6,-,0.05,,Mostly Cloudy,260,2013-07-06 22:27:00
6:53 PM,75.0,71.1,87,29.99,10.0,WNW,5.8,-,0.05,,Mostly Cloudy,300,2013-07-06 22:53:00
7:32 PM,75.2,69.8,83,30.02,10.0,NW,6.9,-,N/A,,Overcast,320,2013-07-06 23:32:00
7:53 PM,73.0,70.0,90,30.00,8.0,NNW,6.9,-,0.00,Rain,Light Rain,340,2013-07-06 23:53:00
8:23 PM,73.4,69.8,88,30.03,10.0,NNW,4.6,-,0.00,,Overcast,340,2013-07-07 00:23:00
8:40 PM,71.6,69.8,94,30.03,1.8,NW,5.8,-,0.03,Rain,Rain,320,2013-07-07 00:40:00
8:50 PM,71.6,69.8,94,30.04,1.8,West,3.5,-,0.07,Rain,Light Rain,280,2013-07-07 00:50:00
8:53 PM,72.0,70.0,93,30.01,2.5,Variable,3.5,-,0.07,Rain,Light Rain,0,2013-07-07 00:53:00
9:00 PM,71.6,69.8,94,30.03,9.0,Calm,Calm,-,0.00,Rain,Light Rain,0,2013-07-07 01:00:00
9:53 PM,70.0,69.1,97,30.03,10.0,SSW,3.5,-,0.00,,Partly Cloudy,200,2013-07-07 01:53:00
10:53 PM,71.1,69.1,93,30.05,10.0,South,8.1,-,N/A,,Mostly Cloudy,180,2013-07-07 02:53:00
11:53 PM,70.0,68.0,93,30.05,9.0,SSW,3.5,-,N/A,,Scattered Clouds,200,2013-07-07 03:53:00